Location: Lewisville
(33.0462°N, 96.9942°W)
Time: 18:03:03
(UTC-05:00)

Envisat - Pass Details

Date: 18 September 2021
Orbit: 764 x 765 km, 98.2° (Epoch: 25 September)

Event Time Altitude Azimuth Distance (km) Brightness Sun altitude
Rises 06:41:41 0° 9° (N) 3,232 6.5 -7.5°
Reaches altitude 10° 06:43:59 10° 7° (N) 2,303 5.7 -7.0°
Maximum altitude 06:49:03 72° 284° (WNW) 805 3.0 -6.0°
Drops below altitude 10° 06:54:04 10° 201° (SSW) 2,290 5.2 -4.9°
Sets 06:56:22 0° 199° (SSW) 3,213 6.0 -4.5°
